SIA23 KJFK-WSSS

Flight info

Callsign SIA23
Flight time 18h 28m
Altitude 33000
Route BETTE DCT ACK DCT BRADD N261B NICSO/M085F330 DCT 48N050W 49N040W 51N030W 52N020W DCT LIMRI/N0498F330 DCT XETBO/N0493F350 DCT ENJEX/N0485F370 DCT ADHAV DCT AGCAT DCT AXNEF DCT ZIPWE DCT OZZIL DCT SAWPE Q63 CPT UL9 BIG L607 KONAN UL607 KOK DCT REMBA UL607 SPI DCT BOMBI DCT DETEV DCT DINKU DCT BESNI DCT GOMIG DCT VATET DCT MOPUG DCT ASNEL DCT UDROS/N0488F390 UM859 KARDE UL851 TBN UR317 REBLO M11 RODAR A909 TUNEK B143 KRS A240 INRAK B449 DOLOS B475 RUBAD A846 RANAH L750 RIKAD/N0492F410 L750 ZB G202 HILAL/N0496F390 G202 RK/N0491F410 P628 IBANI L510 GIVAL P628 VPL Y503 RINBA Y507 MAKNA Y511 TOPOR A464 ARAMA DCT TEBUN TEBUN1A
Aircraft A359/H-SDE2E3GHIJ3J4J5LM1ORWXY/LB1D1

Departure

Time 2026-04-30 20:46
Airport John F. Kennedy International Airport (KJFK)

Arrival

Time 2026-05-01 15:15
Airport Singapore Changi Airport (WSSS)
Time Latitude Longitude Altitude Speed Heading
2026-04-30 20:13 40.64207 -73.77876 23 ft 0 kts 26°
2026-04-30 20:30 40.64181 -73.77893 24 ft 4 kts 26°
2026-04-30 20:31 40.64128 -73.77954 27 ft 4 kts 63°
2026-04-30 20:32 40.64085 -73.78003 26 ft 4 kts 336°
2026-04-30 20:32 40.64042 -73.77969 24 ft 4 kts 306°
2026-04-30 20:33 40.64030 -73.77941 27 ft 2 kts 290°
2026-04-30 20:33 40.64010 -73.77887 26 ft 4 kts 322°
2026-04-30 20:33 40.63992 -73.77872 25 ft 4 kts 330°
2026-04-30 20:34 40.63954 -73.77844 25 ft 3 kts 330°
2026-04-30 20:34 40.63931 -73.77792 27 ft 4 kts 251°
2026-04-30 20:35 40.63938 -73.77771 27 ft 3 kts 241°
2026-04-30 20:35 40.63950 -73.77741 26 ft 4 kts 241°
2026-04-30 20:35 40.63956 -73.77727 26 ft 0 kts 241°
2026-04-30 20:37 40.63943 -73.77758 22 ft 7 kts 241°
2026-04-30 20:38 40.63918 -73.77799 22 ft 4 kts 204°
2026-04-30 20:38 40.63896 -73.77795 22 ft 4 kts 162°
2026-04-30 20:38 40.63872 -73.77775 22 ft 5 kts 146°
2026-04-30 20:39 40.63801 -73.77711 22 ft 8 kts 144°
2026-04-30 20:39 40.63765 -73.77671 22 ft 6 kts 148°
2026-04-30 20:39 40.63722 -73.77668 22 ft 8 kts 194°
2026-04-30 20:40 40.63657 -73.77609 23 ft 5 kts 98°
2026-04-30 20:40 40.63683 -73.77573 22 ft 8 kts 35°
2026-04-30 20:40 40.63746 -73.77521 22 ft 13 kts 31°
2026-04-30 20:41 40.63929 -73.77377 22 ft 15 kts 31°
2026-04-30 20:41 40.64020 -73.77306 24 ft 15 kts 31°
2026-04-30 20:41 40.64111 -73.77235 23 ft 15 kts 31°
2026-04-30 20:41 40.64200 -73.77165 23 ft 15 kts 31°
2026-04-30 20:42 40.64292 -73.77093 23 ft 15 kts 31°
2026-04-30 20:42 40.64384 -73.77022 23 ft 16 kts 28°
2026-04-30 20:42 40.64535 -73.76965 22 ft 8 kts 28°
2026-04-30 20:43 40.64598 -73.76917 24 ft 11 kts 31°
2026-04-30 20:43 40.64664 -73.76866 28 ft 12 kts 31°
2026-04-30 20:43 40.64753 -73.76797 26 ft 17 kts 30°
2026-04-30 20:44 40.64968 -73.76628 22 ft 17 kts 31°
2026-04-30 20:44 40.65066 -73.76552 22 ft 16 kts 31°
2026-04-30 20:44 40.65024 -73.76368 22 ft 9 kts 181°
2026-04-30 20:45 40.64942 -73.76419 21 ft 0 kts 210°
2026-04-30 20:45 40.64934 -73.76425 21 ft 7 kts 210°
2026-04-30 20:45 40.64777 -73.76548 22 ft 51 kts 211°
2026-04-30 20:46 40.62692 -73.78176 51 ft 170 kts 210°
2026-04-30 20:46 40.61718 -73.78904 665 ft 157 kts 209°
2026-04-30 20:47 40.59631 -73.80229 1192 ft 183 kts 205°
2026-04-30 20:47 40.58415 -73.80919 1433 ft 198 kts 205°
2026-04-30 20:48 40.55583 -73.81135 1818 ft 231 kts 156°
2026-04-30 20:48 40.54266 -73.79727 1904 ft 254 kts 126°
2026-04-30 20:48 40.53337 -73.77684 2235 ft 266 kts 118°
2026-04-30 20:48 40.52484 -73.75495 2736 ft 271 kts 117°
2026-04-30 20:49 40.51628 -73.73282 3256 ft 275 kts 117°
2026-04-30 20:49 40.50735 -73.71038 3820 ft 276 kts 118°
2026-04-30 20:49 40.49845 -73.68807 4340 ft 278 kts 118°
2026-04-30 20:50 40.48100 -73.64198 5338 ft 284 kts 114°
2026-04-30 20:50 40.47633 -73.61665 5850 ft 287 kts 91°
2026-04-30 20:50 40.47722 -73.59035 6329 ft 290 kts 82°
2026-04-30 20:50 40.48045 -73.56422 6840 ft 292 kts 78°
2026-04-30 20:51 40.48467 -73.53787 7374 ft 295 kts 76°
2026-04-30 20:51 40.49350 -73.48483 8446 ft 302 kts 77°
2026-04-30 20:51 40.49773 -73.45764 8979 ft 305 kts 78°
2026-04-30 20:52 40.50181 -73.42999 9528 ft 309 kts 78°
2026-04-30 20:52 40.50576 -73.40220 10018 ft 312 kts 79°
2026-04-30 20:52 40.51382 -73.34393 10563 ft 338 kts 80°
2026-04-30 20:53 40.51809 -73.31277 10804 ft 352 kts 80°
2026-04-30 20:53 40.52246 -73.28088 11038 ft 365 kts 80°
2026-04-30 20:53 40.52712 -73.24695 11275 ft 378 kts 80°
2026-04-30 20:54 40.53674 -73.17688 11743 ft 402 kts 81°
2026-04-30 20:54 40.54178 -73.14011 11964 ft 414 kts 81°
2026-04-30 20:54 40.54692 -73.10242 12252 ft 422 kts 81°
2026-04-30 20:55 40.55805 -73.02626 13080 ft 431 kts 76°
2026-04-30 20:55 40.56665 -72.98824 13489 ft 436 kts 72°
2026-04-30 20:55 40.57627 -72.95005 13868 ft 441 kts 72°
2026-04-30 20:56 40.59559 -72.87303 14682 ft 447 kts 73°
2026-04-30 20:56 40.60527 -72.83407 15107 ft 450 kts 73°
2026-04-30 20:56 40.62507 -72.75528 15960 ft 456 kts 72°
2026-04-30 20:57 40.63516 -72.71550 16361 ft 459 kts 72°
2026-04-30 20:57 40.64524 -72.67583 16798 ft 461 kts 72°
2026-04-30 20:57 40.65551 -72.63543 17235 ft 464 kts 72°
2026-04-30 20:58 40.67603 -72.55455 18092 ft 468 kts 72°
2026-04-30 20:58 40.68635 -72.51375 18474 ft 471 kts 72°
2026-04-30 20:58 40.69669 -72.47279 18828 ft 474 kts 73°
2026-04-30 20:58 40.70711 -72.43142 19211 ft 476 kts 73°
2026-04-30 20:59 40.72790 -72.34861 19983 ft 481 kts 73°
2026-04-30 20:59 40.73850 -72.30629 20370 ft 484 kts 73°
2026-04-30 21:00 40.75968 -72.22152 21173 ft 489 kts 73°
2026-04-30 21:00 40.78100 -72.13585 21963 ft 495 kts 73°
2026-04-30 21:01 40.80244 -72.04942 22744 ft 500 kts 73°
2026-04-30 21:01 40.81332 -72.00545 23138 ft 503 kts 73°
2026-04-30 21:01 40.83509 -71.91720 23797 ft 509 kts 73°
2026-04-30 21:02 40.84607 -71.87254 24108 ft 511 kts 73°
2026-04-30 21:02 40.85703 -71.82792 24409 ft 514 kts 73°
2026-04-30 21:02 40.86810 -71.78274 24710 ft 517 kts 73°
2026-04-30 21:02 40.87910 -71.73778 25001 ft 520 kts 73°
2026-04-30 21:03 40.89032 -71.69180 25290 ft 523 kts 73°
2026-04-30 21:03 40.90136 -71.64646 25573 ft 526 kts 73°
2026-04-30 21:03 40.91261 -71.60023 25846 ft 529 kts 73°
2026-04-30 21:03 40.92388 -71.55377 26123 ft 532 kts 73°
2026-04-30 21:04 40.93520 -71.50705 26409 ft 535 kts 73°
2026-04-30 21:04 40.94655 -71.46010 26689 ft 537 kts 73°
2026-04-30 21:04 40.96937 -71.36539 27260 ft 542 kts 73°
2026-04-30 21:05 40.98082 -71.31771 27506 ft 545 kts 73°
2026-04-30 21:05 40.99231 -71.26978 27755 ft 548 kts 73°
2026-04-30 21:05 41.00383 -71.22161 27994 ft 550 kts 73°
2026-04-30 21:05 41.01540 -71.17315 28234 ft 553 kts 73°
2026-04-30 21:06 41.02700 -71.12444 28473 ft 555 kts 73°
2026-04-30 21:06 41.03851 -71.07605 28708 ft 557 kts 73°
2026-04-30 21:06 41.05017 -71.02689 29023 ft 558 kts 73°
2026-04-30 21:06 41.06183 -70.97764 29337 ft 558 kts 73°
2026-04-30 21:07 41.07328 -70.92917 29590 ft 559 kts 73°
2026-04-30 21:07 41.08507 -70.87915 29876 ft 560 kts 73°
2026-04-30 21:07 41.09666 -70.82986 30119 ft 560 kts 74°
2026-04-30 21:07 41.10811 -70.78106 30383 ft 560 kts 74°
2026-04-30 21:08 41.11964 -70.73179 30658 ft 559 kts 74°
2026-04-30 21:08 41.13116 -70.68248 30924 ft 559 kts 74°
2026-04-30 21:08 41.14262 -70.63333 31181 ft 558 kts 74°
2026-04-30 21:08 41.15407 -70.58411 31437 ft 557 kts 74°
2026-04-30 21:09 41.16549 -70.53492 31681 ft 557 kts 74°
2026-04-30 21:09 41.17689 -70.48567 31916 ft 556 kts 75°
2026-04-30 21:09 41.18813 -70.43702 32146 ft 556 kts 75°
2026-04-30 21:09 41.19940 -70.38816 32358 ft 556 kts 75°
2026-04-30 21:10 41.21082 -70.33856 32561 ft 556 kts 75°
2026-04-30 21:10 41.22204 -70.28967 32742 ft 556 kts 75°
2026-04-30 21:10 41.24472 -70.19051 32775 ft 563 kts 75°
2026-04-30 21:11 41.26733 -70.09154 32772 ft 563 kts 74°
2026-04-30 21:11 41.30204 -69.99867 32775 ft 564 kts 52°
2026-04-30 21:12 41.35137 -69.91744 32782 ft 564 kts 48°
2026-04-30 21:12 41.40290 -69.83845 32789 ft 565 kts 47°
2026-04-30 21:13 41.45455 -69.75943 32799 ft 564 kts 47°
2026-04-30 21:13 41.50574 -69.68016 32800 ft 564 kts 48°
2026-04-30 21:14 41.55660 -69.60077 32801 ft 564 kts 48°
2026-04-30 21:14 41.60773 -69.52070 32809 ft 564 kts 48°
2026-04-30 21:15 41.65851 -69.44100 32806 ft 564 kts 48°
2026-04-30 21:15 41.70926 -69.36115 32804 ft 563 kts 48°
2026-04-30 21:16 41.75983 -69.28139 32808 ft 563 kts 48°
2026-04-30 21:16 41.81060 -69.20109 32804 ft 563 kts 49°
2026-04-30 21:17 41.86104 -69.12110 32805 ft 563 kts 49°
2026-04-30 21:17 41.91155 -69.04078 32805 ft 562 kts 49°
2026-04-30 21:18 41.96184 -68.96059 32803 ft 562 kts 49°
2026-04-30 21:18 42.01222 -68.88005 32803 ft 562 kts 49°
2026-04-30 21:19 42.06245 -68.79953 32800 ft 561 kts 49°
2026-04-30 21:19 42.10418 -68.73247 32803 ft 561 kts 49°
2026-04-30 21:20 42.15420 -68.65190 32803 ft 560 kts 49°
2026-04-30 21:20 42.20415 -68.57120 32797 ft 560 kts 49°
2026-04-30 21:21 42.25388 -68.49064 32797 ft 559 kts 49°
2026-04-30 21:22 42.32846 -68.36944 32798 ft 559 kts 49°
2026-04-30 21:23 42.42715 -68.20829 32796 ft 557 kts 50°
2026-04-30 21:23 42.50125 -68.08670 32799 ft 555 kts 50°
2026-04-30 21:24 42.54992 -68.00659 32799 ft 554 kts 50°
2026-04-30 21:24 42.59877 -67.92595 32797 ft 552 kts 50°
2026-04-30 21:25 42.67189 -67.80482 32799 ft 551 kts 50°
2026-04-30 21:26 42.74469 -67.68374 32799 ft 551 kts 50°
2026-04-30 21:27 42.81699 -67.56299 32797 ft 550 kts 50°
2026-04-30 21:27 42.86526 -67.48210 32802 ft 549 kts 50°
2026-04-30 21:28 42.93741 -67.36077 32803 ft 548 kts 51°
2026-04-30 21:29 43.00930 -67.23938 32801 ft 546 kts 51°
2026-04-30 21:30 43.12771 -67.03834 32811 ft 543 kts 51°
2026-04-30 21:31 43.18633 -66.90632 32809 ft 541 kts 63°
2026-04-30 21:31 43.22129 -66.81441 32815 ft 540 kts 64°
2026-04-30 21:32 43.27270 -66.67761 32823 ft 539 kts 64°
2026-04-30 21:32 43.30707 -66.58633 32823 ft 539 kts 64°
2026-04-30 21:33 43.35857 -66.44930 32832 ft 537 kts 64°
2026-04-30 21:34 43.39284 -66.35775 32838 ft 537 kts 64°
2026-04-30 21:34 43.44397 -66.22059 32845 ft 536 kts 64°
2026-04-30 21:35 43.47777 -66.12948 32853 ft 536 kts 64°
2026-04-30 21:35 43.51137 -66.03863 32852 ft 535 kts 64°
2026-04-30 21:36 43.54512 -65.94707 32856 ft 535 kts 64°
2026-04-30 21:37 43.61201 -65.76484 32868 ft 534 kts 64°
2026-04-30 21:37 43.64565 -65.67266 32889 ft 534 kts 64°
2026-04-30 21:38 43.67888 -65.58133 32905 ft 533 kts 64°
2026-04-30 21:38 43.71215 -65.48959 32912 ft 533 kts 64°
2026-04-30 21:39 43.74522 -65.39811 32919 ft 532 kts 64°
2026-04-30 21:39 43.77826 -65.30639 32928 ft 532 kts 64°
2026-04-30 21:40 43.81101 -65.21518 32935 ft 532 kts 64°
2026-04-30 21:40 43.84385 -65.12344 32942 ft 531 kts 64°
2026-04-30 21:41 43.87637 -65.03226 32950 ft 529 kts 64°
2026-04-30 21:41 43.90892 -64.94071 32959 ft 528 kts 64°
2026-04-30 21:42 43.94127 -64.84942 32967 ft 527 kts 64°
2026-04-30 21:42 43.97350 -64.75817 32970 ft 525 kts 64°
2026-04-30 21:43 44.00558 -64.66702 32974 ft 524 kts 64°
2026-04-30 21:43 44.03746 -64.57613 32979 ft 522 kts 65°
2026-04-30 21:44 44.06922 -64.48531 32975 ft 521 kts 65°
2026-04-30 21:44 44.10075 -64.39484 32973 ft 520 kts 65°
2026-04-30 21:45 44.13223 -64.30418 32975 ft 519 kts 65°
2026-04-30 21:45 44.16360 -64.21357 32968 ft 518 kts 65°
2026-04-30 21:46 44.19476 -64.12323 32975 ft 517 kts 65°
2026-04-30 21:46 44.22564 -64.03344 32977 ft 516 kts 66°
2026-04-30 21:47 44.25654 -63.94326 32980 ft 515 kts 66°
2026-04-30 21:47 44.28745 -63.85278 32985 ft 514 kts 66°
2026-04-30 21:48 44.31795 -63.76317 32993 ft 514 kts 66°
2026-04-30 21:48 44.34868 -63.67259 32998 ft 513 kts 66°
2026-04-30 21:49 44.37897 -63.58302 33008 ft 513 kts 66°
2026-04-30 21:49 44.40929 -63.49302 33017 ft 512 kts 66°
2026-04-30 21:50 44.43962 -63.40273 33020 ft 512 kts 66°
2026-04-30 21:50 44.46987 -63.31237 33028 ft 512 kts 66°
2026-04-30 21:51 44.49987 -63.22244 33028 ft 511 kts 67°
2026-04-30 21:51 44.52987 -63.13220 33031 ft 510 kts 67°
2026-04-30 21:52 44.55978 -63.04193 33039 ft 509 kts 67°
2026-04-30 21:52 44.58950 -62.95193 33043 ft 508 kts 67°
2026-04-30 21:53 44.61899 -62.86234 33047 ft 508 kts 67°
2026-04-30 21:53 44.64848 -62.77241 33053 ft 508 kts 67°
2026-04-30 21:54 44.67798 -62.68215 33055 ft 508 kts 67°
2026-04-30 21:54 44.70734 -62.59202 33063 ft 507 kts 67°
2026-04-30 21:55 44.73670 -62.50160 33061 ft 507 kts 67°
2026-04-30 21:55 44.76595 -62.41117 33069 ft 508 kts 67°
2026-04-30 21:56 44.79497 -62.32116 33072 ft 508 kts 67°
2026-04-30 21:56 44.82410 -62.23050 33077 ft 508 kts 67°
2026-04-30 21:57 44.85321 -62.13957 33079 ft 508 kts 67°
2026-04-30 21:57 44.88221 -62.04867 33088 ft 509 kts 67°
2026-04-30 21:58 44.91124 -61.95737 33091 ft 510 kts 67°
2026-04-30 21:58 44.94007 -61.86639 33093 ft 511 kts 67°
2026-04-30 21:59 44.96901 -61.77472 33097 ft 512 kts 67°
2026-04-30 22:00 45.01243 -61.63658 33099 ft 513 kts 67°
2026-04-30 22:00 45.05576 -61.49798 33108 ft 514 kts 67°
2026-04-30 22:01 45.08459 -61.40533 33109 ft 514 kts 67°
2026-04-30 22:01 45.11337 -61.31253 33115 ft 515 kts 67°
2026-04-30 22:02 45.14208 -61.21962 33111 ft 515 kts 67°
2026-04-30 22:02 45.17078 -61.12638 33111 ft 516 kts 67°
2026-04-30 22:03 45.19938 -61.03314 33115 ft 516 kts 67°
2026-04-30 22:03 45.22798 -60.93957 33117 ft 517 kts 67°
2026-04-30 22:04 45.25651 -60.84587 33122 ft 518 kts 67°
2026-04-30 22:05 45.29906 -60.70547 33123 ft 518 kts 67°
2026-04-30 22:05 45.32748 -60.61130 33130 ft 518 kts 67°
2026-04-30 22:06 45.35583 -60.51698 33133 ft 519 kts 67°
2026-04-30 22:06 45.39826 -60.37513 33140 ft 519 kts 66°
2026-04-30 22:07 45.42625 -60.28114 33147 ft 519 kts 66°
2026-04-30 22:07 45.45435 -60.18641 33152 ft 519 kts 66°
2026-04-30 22:08 45.47769 -60.10744 33148 ft 519 kts 66°
2026-04-30 22:08 45.50564 -60.01256 33156 ft 518 kts 66°
2026-04-30 22:09 45.53350 -59.91765 33162 ft 518 kts 66°
2026-04-30 22:09 45.56105 -59.82340 33158 ft 518 kts 66°
2026-04-30 22:10 45.58873 -59.72839 33158 ft 518 kts 66°
2026-04-30 22:10 45.61633 -59.63325 33152 ft 518 kts 66°
2026-04-30 22:11 45.65757 -59.49043 33175 ft 518 kts 67°
2026-04-30 22:12 45.68495 -59.39514 33172 ft 517 kts 67°
2026-04-30 22:12 45.71207 -59.30038 33158 ft 517 kts 67°
2026-04-30 22:13 45.73926 -59.20505 33173 ft 517 kts 67°
2026-04-30 22:13 45.76635 -59.10966 33179 ft 516 kts 67°
2026-04-30 22:14 45.79332 -59.01434 33179 ft 516 kts 68°
2026-04-30 22:14 45.82015 -58.91913 33183 ft 515 kts 68°
2026-04-30 22:15 45.84687 -58.82395 33184 ft 514 kts 68°
2026-04-30 22:15 45.87346 -58.72884 33184 ft 513 kts 68°
2026-04-30 22:16 45.89993 -58.63380 33189 ft 512 kts 68°
2026-04-30 22:17 45.95235 -58.44448 33197 ft 511 kts 69°
2026-04-30 22:17 45.99151 -58.30207 33205 ft 510 kts 69°
2026-04-30 22:18 46.03039 -58.15987 33205 ft 508 kts 70°
2026-04-30 22:19 46.06899 -58.01781 33214 ft 507 kts 70°
2026-04-30 22:20 46.10716 -57.87650 33220 ft 506 kts 71°
2026-04-30 22:20 46.14517 -57.73489 33221 ft 505 kts 71°
2026-04-30 22:21 46.17041 -57.64039 33225 ft 504 kts 71°
2026-04-30 22:21 46.19554 -57.54594 33225 ft 504 kts 71°
2026-04-30 22:22 46.22062 -57.45131 33232 ft 504 kts 71°
2026-04-30 22:22 46.24541 -57.35738 33231 ft 503 kts 71°
2026-04-30 22:23 46.27028 -57.26277 33233 ft 503 kts 71°
2026-04-30 22:23 46.29512 -57.16786 33246 ft 503 kts 71°
2026-04-30 22:24 46.31972 -57.07356 33241 ft 503 kts 71°
2026-04-30 22:24 46.34436 -56.97867 33248 ft 503 kts 71°
2026-04-30 22:25 46.36879 -56.88424 33247 ft 502 kts 71°
2026-04-30 22:25 46.39322 -56.78941 33251 ft 502 kts 71°
2026-04-30 22:26 46.42961 -56.64743 33251 ft 502 kts 71°
2026-04-30 22:27 46.45378 -56.55264 33260 ft 502 kts 71°
2026-04-30 22:27 46.49000 -56.40983 33263 ft 501 kts 71°
2026-04-30 22:28 46.52585 -56.26762 33269 ft 501 kts 71°
2026-04-30 22:29 46.57354 -56.07702 33273 ft 501 kts 71°
2026-04-30 22:31 46.65580 -55.74454 33288 ft 499 kts 71°
2026-04-30 22:32 46.71398 -55.50636 33332 ft 498 kts 72°
2026-04-30 22:33 46.77156 -55.26803 33300 ft 499 kts 72°
2026-04-30 22:35 46.82879 -55.02862 33313 ft 499 kts 72°
2026-04-30 22:36 46.88539 -54.78929 33297 ft 500 kts 72°
2026-04-30 22:37 46.93043 -54.59693 33314 ft 500 kts 72°
2026-04-30 22:38 46.97514 -54.40431 33315 ft 500 kts 71°
2026-04-30 22:39 47.00840 -54.25988 33316 ft 499 kts 71°
2026-04-30 22:40 47.07442 -53.97032 33322 ft 499 kts 72°
2026-04-30 22:41 47.12875 -53.72902 33333 ft 497 kts 72°
2026-04-30 22:43 47.19308 -53.43965 33810 ft 494 kts 73°
2026-04-30 22:43 47.21407 -53.34432 34321 ft 492 kts 73°
2026-04-30 22:44 47.23513 -53.24832 34710 ft 491 kts 73°
2026-04-30 22:45 47.27670 -53.05744 35331 ft 491 kts 73°
2026-04-30 22:45 47.29744 -52.96155 35359 ft 491 kts 73°
2026-04-30 22:47 47.35889 -52.67479 35352 ft 489 kts 73°
2026-04-30 22:48 47.39947 -52.48315 35350 ft 488 kts 73°
2026-04-30 22:49 47.45949 -52.19639 35362 ft 486 kts 73°
2026-04-30 22:51 47.52098 -51.91125 35370 ft 484 kts 68°
2026-04-30 22:52 47.55855 -51.77301 35373 ft 483 kts 68°
2026-04-30 22:53 47.60684 -51.58803 35371 ft 482 kts 69°
2026-04-30 22:53 47.64243 -51.44854 35373 ft 481 kts 69°
2026-04-30 22:55 47.70113 -51.21703 35378 ft 479 kts 69°
2026-04-30 22:56 47.74777 -51.03150 35384 ft 479 kts 69°
2026-04-30 22:57 47.80559 -50.79933 35388 ft 478 kts 69°
2026-04-30 22:58 47.84753 -50.62941 35388 ft 479 kts 69°
2026-04-30 22:59 47.91574 -50.35025 35395 ft 478 kts 69°
2026-05-01 07:23 40.58926 47.77459 37156 ft 520 kts 94°
2026-05-01 07:24 40.58465 47.91667 37154 ft 520 kts 94°
2026-05-01 07:24 40.59065 48.01194 37154 ft 522 kts 83°
2026-05-01 07:25 40.60150 48.10648 37154 ft 523 kts 82°
2026-05-01 07:25 40.61296 48.20091 37152 ft 523 kts 82°
2026-05-01 07:26 40.62235 48.27938 37149 ft 523 kts 82°
2026-05-01 07:26 40.63337 48.37369 37145 ft 522 kts 82°
2026-05-01 07:27 40.64427 48.46836 37142 ft 522 kts 82°
2026-05-01 07:27 40.65506 48.56274 37130 ft 521 kts 82°
2026-05-01 07:28 40.66578 48.65718 37128 ft 521 kts 82°
2026-05-01 07:28 40.67642 48.75143 37119 ft 520 kts 82°
2026-05-01 07:29 40.68691 48.84515 37116 ft 520 kts 82°
2026-05-01 07:29 40.69743 48.93977 37105 ft 520 kts 82°
2026-05-01 07:30 40.70783 49.03417 37101 ft 520 kts 82°
2026-05-01 07:30 40.71814 49.12847 37097 ft 520 kts 82°
2026-05-01 07:31 40.72719 49.22302 37095 ft 519 kts 89°
2026-05-01 07:31 40.71679 49.36357 37096 ft 516 kts 101°
2026-05-01 07:32 40.70537 49.45744 37100 ft 516 kts 101°
2026-05-01 07:33 40.68823 49.59696 37116 ft 516 kts 101°
2026-05-01 07:33 40.67117 49.73682 37128 ft 516 kts 101°
2026-05-01 07:34 40.65401 49.87672 37142 ft 516 kts 101°
2026-05-01 07:35 40.64241 49.97041 37148 ft 516 kts 101°
2026-05-01 07:35 40.63081 50.06342 37153 ft 516 kts 101°
2026-05-01 07:36 40.61911 50.15663 37151 ft 516 kts 101°
2026-05-01 07:36 40.60732 50.24990 37137 ft 516 kts 101°
2026-05-01 07:37 40.58950 50.38943 37147 ft 516 kts 101°
2026-05-01 07:37 40.57751 50.48262 37157 ft 516 kts 101°
2026-05-01 07:38 40.56554 50.57527 37165 ft 516 kts 101°
2026-05-01 07:39 40.54743 50.71440 37184 ft 516 kts 101°
2026-05-01 07:39 40.52906 50.85400 37174 ft 516 kts 101°
2026-05-01 07:40 40.51681 50.94703 37187 ft 516 kts 101°
2026-05-01 07:40 40.50790 51.04000 37182 ft 517 kts 97°
2026-05-01 07:41 40.50029 51.13403 37190 ft 517 kts 98°
2026-05-01 07:42 40.48791 51.27451 37184 ft 516 kts 98°
2026-05-01 07:42 40.47917 51.36821 37196 ft 516 kts 98°
2026-05-01 07:43 40.47032 51.46167 37197 ft 516 kts 98°
2026-05-01 07:43 40.44867 51.59988 37201 ft 515 kts 105°
2026-05-01 07:44 40.41487 51.78273 37195 ft 515 kts 105°
2026-05-01 07:45 40.39795 51.87408 37202 ft 515 kts 105°
2026-05-01 07:45 40.38103 51.96529 37199 ft 515 kts 105°
2026-05-01 07:46 40.36402 52.05655 37200 ft 515 kts 105°
2026-05-01 07:47 40.33841 52.19294 37198 ft 515 kts 105°
2026-05-01 07:47 40.32123 52.28404 37201 ft 515 kts 105°
2026-05-01 07:48 40.29532 52.42064 37202 ft 515 kts 105°
2026-05-01 07:48 40.27796 52.51162 37204 ft 515 kts 106°
2026-05-01 07:49 40.23635 52.63925 37202 ft 508 kts 125°
2026-05-01 07:50 40.19684 52.71624 37209 ft 508 kts 127°
2026-05-01 07:50 40.13636 52.82981 37207 ft 509 kts 127°
2026-05-01 07:51 40.09594 52.90612 37212 ft 509 kts 127°
2026-05-01 07:52 40.03860 53.02282 37208 ft 514 kts 116°
2026-05-01 07:52 40.01189 53.10959 37211 ft 515 kts 112°
2026-05-01 07:53 39.97494 53.24102 37200 ft 516 kts 112°
2026-05-01 07:53 39.95014 53.32883 37200 ft 516 kts 112°
2026-05-01 07:55 39.88722 53.54804 37195 ft 517 kts 112°
2026-05-01 07:56 39.82385 53.76709 37189 ft 517 kts 112°
2026-05-01 07:57 39.78567 53.89824 37188 ft 518 kts 112°
2026-05-01 07:58 39.73439 54.07329 37190 ft 518 kts 112°
2026-05-01 07:59 39.68288 54.24799 37183 ft 519 kts 113°
2026-05-01 08:00 39.60498 54.51001 37180 ft 520 kts 113°
2026-05-01 08:01 39.55263 54.68489 37187 ft 521 kts 113°
2026-05-01 08:02 39.51305 54.81618 37184 ft 521 kts 113°
2026-05-01 08:03 39.47337 54.94709 37183 ft 522 kts 113°
2026-05-01 08:03 39.43359 55.07778 37184 ft 522 kts 114°
2026-05-01 08:04 39.38016 55.25234 37181 ft 523 kts 114°
2026-05-01 08:05 39.33975 55.38365 37177 ft 523 kts 114°
2026-05-01 08:06 39.29921 55.51472 37176 ft 524 kts 114°
2026-05-01 08:07 39.23970 55.68576 37177 ft 522 kts 120°
2026-05-01 08:08 39.18976 55.81048 37174 ft 523 kts 119°
2026-05-01 08:09 39.12463 55.97845 37175 ft 524 kts 119°
2026-05-01 08:09 39.09219 56.06238 37175 ft 525 kts 119°
2026-05-01 08:10 39.02674 56.23061 37168 ft 525 kts 119°
2026-05-01 08:11 38.97074 56.40459 37168 ft 529 kts 112°
2026-05-01 08:12 38.93418 56.53866 37166 ft 530 kts 112°
2026-05-01 08:13 38.89745 56.67223 37166 ft 530 kts 112°
2026-05-01 08:13 38.86021 56.80644 37168 ft 531 kts 112°
2026-05-01 08:14 38.83549 56.89511 37172 ft 531 kts 112°
2026-05-01 08:14 38.81052 56.98435 37170 ft 531 kts 112°
2026-05-01 08:15 38.77310 57.11761 37165 ft 531 kts 112°
2026-05-01 08:16 38.74796 57.20681 37164 ft 532 kts 112°
2026-05-01 08:16 38.72686 57.28140 37165 ft 532 kts 112°
2026-05-01 08:17 38.69752 57.38472 37163 ft 532 kts 113°
2026-05-01 08:17 38.67623 57.45945 37167 ft 532 kts 113°
2026-05-01 08:18 38.65093 57.54797 37163 ft 533 kts 113°
2026-05-01 08:19 38.59856 57.72557 37160 ft 532 kts 117°
2026-05-01 08:19 38.56789 57.81105 37162 ft 531 kts 118°
2026-05-01 08:20 38.53677 57.89644 37162 ft 532 kts 118°
2026-05-01 08:20 38.50597 57.98289 37158 ft 533 kts 117°
2026-05-01 08:21 38.47567 58.06894 37154 ft 533 kts 117°
2026-05-01 08:21 38.44536 58.15487 37169 ft 534 kts 117°
2026-05-01 08:22 38.41476 58.24129 37162 ft 534 kts 118°
2026-05-01 08:22 38.39044 58.33099 37166 ft 539 kts 108°
2026-05-01 08:23 38.37152 58.42370 37162 ft 540 kts 107°
2026-05-01 08:23 38.35322 58.51703 37163 ft 540 kts 107°
2026-05-01 08:24 38.33496 58.60916 37164 ft 540 kts 107°
2026-05-01 08:24 38.31630 58.70202 37161 ft 540 kts 107°
2026-05-01 08:25 38.29759 58.79441 37159 ft 541 kts 107°
2026-05-01 08:25 38.27865 58.88749 37162 ft 541 kts 107°
2026-05-01 08:26 38.25974 58.98014 37161 ft 541 kts 107°
2026-05-01 08:26 38.24079 59.07259 37169 ft 541 kts 108°
2026-05-01 08:27 38.22174 59.16511 37170 ft 542 kts 108°
2026-05-01 08:27 38.20256 59.25786 37172 ft 542 kts 108°
2026-05-01 08:28 38.18333 59.35045 37176 ft 542 kts 108°
2026-05-01 08:28 38.16407 59.44279 37173 ft 543 kts 108°
2026-05-01 08:29 38.14470 59.53524 37178 ft 543 kts 108°
2026-05-01 08:29 38.12518 59.62801 37176 ft 543 kts 108°
2026-05-01 08:30 38.10557 59.72084 37176 ft 544 kts 108°
2026-05-01 08:30 38.08601 59.81307 37188 ft 544 kts 108°
2026-05-01 08:31 38.06615 59.90626 37180 ft 545 kts 108°
2026-05-01 08:31 38.04640 59.99860 37180 ft 545 kts 109°
2026-05-01 08:32 38.02645 60.09145 37180 ft 545 kts 109°
2026-05-01 08:32 37.99926 60.18024 37182 ft 535 kts 126°
2026-05-01 08:33 37.95416 60.25392 37185 ft 526 kts 137°
2026-05-01 08:33 37.90489 60.32185 37185 ft 525 kts 139°
2026-05-01 08:34 37.85506 60.38922 37190 ft 526 kts 139°
2026-05-01 08:34 37.80501 60.45734 37193 ft 528 kts 139°
2026-05-01 08:35 37.75523 60.52541 37196 ft 528 kts 139°
2026-05-01 08:35 37.70492 60.59228 37192 ft 527 kts 141°
2026-05-01 08:36 37.65296 60.65801 37194 ft 528 kts 141°
2026-05-01 08:36 37.60089 60.72378 37198 ft 529 kts 141°
2026-05-01 08:37 37.54928 60.78936 37195 ft 530 kts 141°
2026-05-01 08:37 37.49713 60.85575 37195 ft 531 kts 141°
2026-05-01 08:38 37.44541 60.92148 37190 ft 532 kts 141°
2026-05-01 08:38 37.39298 60.98795 37194 ft 533 kts 141°
2026-05-01 08:39 37.34089 61.05385 37196 ft 533 kts 141°
2026-05-01 08:39 37.28835 61.12018 37193 ft 534 kts 142°
2026-05-01 08:40 37.20995 61.21888 37195 ft 534 kts 142°
2026-05-01 08:40 37.15718 61.28512 37195 ft 535 kts 142°
2026-05-01 08:41 37.10446 61.35105 37193 ft 535 kts 142°
2026-05-01 08:41 37.05174 61.41686 37207 ft 536 kts 142°
2026-05-01 08:42 36.99877 61.48282 37197 ft 536 kts 142°
2026-05-01 08:42 36.94601 61.54840 37194 ft 537 kts 142°
2026-05-01 08:43 36.89296 61.61424 37194 ft 538 kts 142°
2026-05-01 08:43 36.83979 61.68020 37190 ft 539 kts 142°
2026-05-01 08:44 36.78674 61.74577 37189 ft 539 kts 142°
2026-05-01 08:44 36.73311 61.81191 37194 ft 540 kts 142°
2026-05-01 08:45 36.67985 61.87751 37189 ft 541 kts 142°
2026-05-01 08:45 36.62642 61.94323 37191 ft 541 kts 142°
2026-05-01 08:46 36.57271 62.00915 37189 ft 542 kts 143°
2026-05-01 08:46 36.51873 62.07517 37190 ft 542 kts 143°
2026-05-01 08:47 36.46489 62.14094 37201 ft 543 kts 143°
2026-05-01 08:47 36.41113 62.20646 37175 ft 544 kts 143°
2026-05-01 08:48 36.35694 62.27240 37187 ft 544 kts 143°
2026-05-01 08:48 36.30300 62.33790 37183 ft 544 kts 143°
2026-05-01 08:49 36.24893 62.40343 37183 ft 545 kts 143°
2026-05-01 08:49 36.19481 62.46890 37180 ft 545 kts 143°
2026-05-01 08:50 36.14036 62.53465 37178 ft 546 kts 143°
2026-05-01 08:50 36.08604 62.60005 37178 ft 546 kts 143°
2026-05-01 08:51 36.03155 62.66552 37173 ft 547 kts 143°
2026-05-01 08:51 35.97694 62.73101 37170 ft 547 kts 143°
2026-05-01 08:52 35.92227 62.79644 37163 ft 548 kts 143°
2026-05-01 08:52 35.86740 62.86200 37162 ft 548 kts 143°
2026-05-01 08:53 35.81262 62.92729 37158 ft 549 kts 143°
2026-05-01 08:53 35.75751 62.99286 37157 ft 549 kts 144°
2026-05-01 08:54 35.70286 63.05778 37153 ft 549 kts 144°
2026-05-01 08:54 35.64781 63.12302 37149 ft 550 kts 144°
2026-05-01 08:55 35.59306 63.18829 37149 ft 553 kts 141°
2026-05-01 08:55 35.54338 63.26239 37157 ft 561 kts 135°
2026-05-01 08:56 35.49594 63.33804 37148 ft 562 kts 134°
2026-05-01 08:56 35.44829 63.41455 37141 ft 563 kts 134°
2026-05-01 08:57 35.40085 63.49026 37132 ft 563 kts 135°
2026-05-01 08:57 35.35298 63.56623 37126 ft 563 kts 135°
2026-05-01 08:58 35.30507 63.64204 37128 ft 564 kts 135°
2026-05-01 08:58 35.25700 63.71831 37122 ft 564 kts 134°
2026-05-01 08:59 35.20925 63.79408 37116 ft 564 kts 135°
2026-05-01 08:59 35.16129 63.87001 37105 ft 564 kts 135°
2026-05-01 09:00 35.11338 63.94563 37104 ft 564 kts 135°
2026-05-01 09:00 35.06533 64.02138 37094 ft 564 kts 135°
2026-05-01 09:01 35.01726 64.09700 37086 ft 565 kts 134°
2026-05-01 09:01 34.96885 64.17298 37085 ft 565 kts 135°
2026-05-01 09:02 34.92053 64.24862 37068 ft 565 kts 135°
2026-05-01 09:02 34.87213 64.32426 37061 ft 565 kts 135°
2026-05-01 09:03 34.82396 64.39935 37061 ft 566 kts 135°
2026-05-01 09:03 34.77542 64.47481 37050 ft 565 kts 135°
2026-05-01 09:04 34.72671 64.55040 37040 ft 565 kts 135°
2026-05-01 09:04 34.67840 64.62523 37017 ft 565 kts 135°
2026-05-01 09:05 34.62991 64.70017 37011 ft 565 kts 135°
2026-05-01 09:05 34.58930 64.76280 37004 ft 566 kts 135°
2026-05-01 09:06 34.53245 64.85029 36990 ft 566 kts 135°
2026-05-01 09:06 34.49185 64.91268 36990 ft 566 kts 135°
2026-05-01 09:07 34.44286 64.98771 36983 ft 566 kts 135°
2026-05-01 09:07 34.39411 65.06202 36978 ft 565 kts 135°
2026-05-01 09:08 34.34526 65.13634 36976 ft 565 kts 135°
2026-05-01 09:08 34.29606 65.21110 36978 ft 565 kts 135°
2026-05-01 09:09 34.24725 65.28513 36980 ft 566 kts 135°
2026-05-01 09:09 34.19812 65.35949 36981 ft 566 kts 135°
2026-05-01 09:10 34.14916 65.43343 36977 ft 565 kts 135°
2026-05-01 09:10 34.10000 65.50746 36978 ft 565 kts 135°
2026-05-01 09:11 34.05070 65.58165 36971 ft 565 kts 135°
2026-05-01 09:11 34.00172 65.65538 36965 ft 565 kts 135°
2026-05-01 09:12 33.95236 65.72955 36957 ft 565 kts 135°
2026-05-01 09:12 33.90329 65.80307 36939 ft 565 kts 135°
2026-05-01 09:13 33.85409 65.87664 36927 ft 565 kts 135°
2026-05-01 09:13 33.80464 65.95050 36934 ft 564 kts 135°
2026-05-01 09:14 33.75576 66.02337 36910 ft 561 kts 135°
2026-05-01 09:14 33.70654 66.09658 36909 ft 560 kts 136°
2026-05-01 09:15 33.65763 66.16911 36901 ft 563 kts 135°
2026-05-01 09:15 33.60825 66.24221 36888 ft 564 kts 135°
2026-05-01 09:16 33.55874 66.31536 36876 ft 563 kts 135°
2026-05-01 09:17 33.48464 66.42459 36879 ft 564 kts 135°
2026-05-01 09:17 33.41012 66.53397 36890 ft 564 kts 135°
2026-05-01 09:18 33.33549 66.64268 36916 ft 563 kts 135°
2026-05-01 09:19 33.26082 66.75113 36932 ft 564 kts 135°
2026-05-01 09:20 33.18638 66.85913 36927 ft 564 kts 135°
2026-05-01 09:21 33.08625 67.00392 36932 ft 563 kts 135°
2026-05-01 09:21 33.01166 67.11132 36908 ft 563 kts 135°
2026-05-01 09:22 32.91147 67.25504 36869 ft 563 kts 135°
2026-05-01 09:23 32.83637 67.36244 36838 ft 564 kts 135°
2026-05-01 09:24 32.76136 67.46944 36822 ft 563 kts 136°
2026-05-01 09:25 32.65777 67.60822 36799 ft 561 kts 137°
2026-05-01 09:26 32.57967 67.71215 36786 ft 561 kts 137°
2026-05-01 09:26 32.50208 67.81582 36789 ft 561 kts 137°
2026-05-01 09:27 32.42683 67.92238 36797 ft 563 kts 134°
2026-05-01 09:28 32.37772 67.99415 36801 ft 562 kts 134°
2026-05-01 09:28 32.32824 68.06552 36801 ft 562 kts 135°
2026-05-01 09:29 32.25330 68.17252 36807 ft 561 kts 135°
2026-05-01 09:30 32.17873 68.27866 36809 ft 561 kts 135°
2026-05-01 09:30 32.10403 68.38476 36807 ft 560 kts 135°
2026-05-01 09:31 32.05420 68.45545 36803 ft 560 kts 135°
2026-05-01 09:32 31.97944 68.56114 36795 ft 561 kts 135°
2026-05-01 09:32 31.90424 68.66710 36787 ft 561 kts 135°
2026-05-01 09:33 31.85427 68.73735 36772 ft 561 kts 135°
2026-05-01 09:34 31.77920 68.84268 36757 ft 561 kts 135°
2026-05-01 09:34 31.70391 68.94804 36748 ft 561 kts 135°
2026-05-01 09:35 31.62891 69.05423 36743 ft 562 kts 133°
2026-05-01 09:36 31.58097 69.12623 36732 ft 564 kts 132°
2026-05-01 09:36 31.53261 69.19894 36717 ft 563 kts 132°
2026-05-01 09:37 31.48408 69.27111 36723 ft 564 kts 133°
2026-05-01 09:37 31.41084 69.37926 36711 ft 564 kts 133°
2026-05-01 09:38 31.35568 69.44150 36712 ft 548 kts 152°
2026-05-01 09:38 31.32271 69.46320 36708 ft 535 kts 163°
2026-05-01 09:38 31.28795 69.47720 36717 ft 524 kts 173°
2026-05-01 09:39 31.21737 69.49615 36710 ft 521 kts 176°
2026-05-01 09:39 31.14622 69.51302 36720 ft 521 kts 176°
2026-05-01 09:40 31.03966 69.53882 36719 ft 521 kts 175°
2026-05-01 09:41 30.96878 69.55636 36717 ft 521 kts 175°
2026-05-01 09:41 30.86272 69.58268 36706 ft 521 kts 175°
2026-05-01 09:42 30.79156 69.60029 36710 ft 521 kts 175°
2026-05-01 09:43 30.65013 69.63522 36699 ft 519 kts 175°
2026-05-01 09:43 30.57956 69.65260 36702 ft 519 kts 175°
2026-05-01 09:44 30.47376 69.67859 36701 ft 519 kts 175°
2026-05-01 09:45 30.40323 69.69589 36700 ft 519 kts 175°
2026-05-01 09:45 30.29727 69.72187 36699 ft 519 kts 175°
2026-05-01 09:46 30.22652 69.73930 36701 ft 520 kts 174°
2026-05-01 09:46 30.15611 69.75956 36705 ft 521 kts 172°
2026-05-01 09:47 30.08594 69.78082 36706 ft 521 kts 172°
2026-05-01 09:47 30.01583 69.80163 36704 ft 521 kts 172°
2026-05-01 09:48 29.94562 69.82209 36696 ft 521 kts 172°
2026-05-01 09:48 29.87519 69.84248 36688 ft 520 kts 172°
2026-05-01 09:49 29.80496 69.86278 36690 ft 521 kts 172°
2026-05-01 09:49 29.73513 69.88300 36680 ft 520 kts 172°
2026-05-01 09:50 29.66489 69.90331 36688 ft 520 kts 172°
2026-05-01 09:50 29.59437 69.92367 36657 ft 519 kts 172°
2026-05-01 09:51 29.52405 69.94393 36671 ft 520 kts 172°
2026-05-01 09:51 29.45414 69.96405 36663 ft 520 kts 172°
2026-05-01 09:52 29.38412 69.98416 36654 ft 520 kts 172°
2026-05-01 09:52 29.32577 70.00090 36650 ft 520 kts 172°
2026-05-01 09:53 29.25564 70.02098 36644 ft 519 kts 171°
2026-05-01 09:53 29.18541 70.04106 36638 ft 520 kts 171°
2026-05-01 09:54 29.11527 70.06109 36629 ft 520 kts 171°
2026-05-01 09:54 29.04510 70.08112 36622 ft 519 kts 171°
2026-05-01 09:55 28.97506 70.10107 36618 ft 519 kts 171°
2026-05-01 09:55 28.90506 70.12095 36611 ft 518 kts 171°
2026-05-01 09:56 28.83532 70.14075 36609 ft 518 kts 171°
2026-05-01 09:56 28.76506 70.16069 36609 ft 518 kts 171°
2026-05-01 09:57 28.69557 70.18038 36603 ft 517 kts 171°
2026-05-01 09:57 28.62542 70.20023 36604 ft 517 kts 171°
2026-05-01 09:58 28.55582 70.21989 36600 ft 517 kts 171°
2026-05-01 09:58 28.48584 70.23963 36595 ft 517 kts 171°
2026-05-01 09:59 28.41735 70.26547 36589 ft 526 kts 158°
2026-05-01 09:59 28.38604 70.28702 36594 ft 533 kts 147°
2026-05-01 09:59 28.35819 70.31504 36597 ft 539 kts 136°
2026-05-01 10:00 28.33515 70.34890 36595 ft 543 kts 124°
2026-05-01 10:00 28.31697 70.38654 36592 ft 545 kts 118°
2026-05-01 10:00 28.28400 70.46410 36592 ft 547 kts 117°
2026-05-01 10:01 28.25146 70.54256 36593 ft 547 kts 117°
2026-05-01 10:01 28.21868 70.62016 36596 ft 547 kts 117°
2026-05-01 10:02 28.18538 70.69798 36593 ft 547 kts 117°
2026-05-01 10:02 28.15224 70.77506 36593 ft 547 kts 117°
2026-05-01 10:03 28.11885 70.85263 36592 ft 547 kts 117°
2026-05-01 10:03 28.08548 70.93002 36592 ft 547 kts 117°
2026-05-01 10:04 28.05206 71.00742 36588 ft 547 kts 117°
2026-05-01 10:04 28.01855 71.08485 36586 ft 547 kts 117°
2026-05-01 10:05 27.98490 71.16249 36586 ft 547 kts 117°
2026-05-01 10:05 27.95132 71.23980 36584 ft 547 kts 117°
2026-05-01 10:06 27.91785 71.31672 36585 ft 547 kts 117°
2026-05-01 10:06 27.88432 71.39364 36581 ft 547 kts 117°
2026-05-01 10:07 27.85034 71.47081 36578 ft 548 kts 118°
2026-05-01 10:07 27.81509 71.54699 36581 ft 548 kts 119°
2026-05-01 10:08 27.76169 71.66163 36580 ft 549 kts 119°
2026-05-01 10:09 27.72656 71.73749 36581 ft 549 kts 119°
2026-05-01 10:09 27.69110 71.81410 36579 ft 550 kts 119°
2026-05-01 10:10 27.65561 71.89074 36578 ft 550 kts 119°
2026-05-01 10:10 27.60234 72.00538 36577 ft 551 kts 119°
2026-05-01 10:11 27.56673 72.08177 36578 ft 551 kts 119°
2026-05-01 10:11 27.53093 72.15849 36580 ft 552 kts 119°
2026-05-01 10:12 27.49518 72.23495 36581 ft 552 kts 119°
2026-05-01 10:13 27.44142 72.34958 36582 ft 553 kts 119°
2026-05-01 10:13 27.40549 72.42602 36582 ft 553 kts 119°
2026-05-01 10:14 27.35144 72.54087 36590 ft 553 kts 119°
2026-05-01 10:14 27.31542 72.61718 36594 ft 554 kts 119°
2026-05-01 10:15 27.27935 72.69348 36603 ft 554 kts 118°
2026-05-01 10:15 27.24319 72.76982 36610 ft 554 kts 118°
2026-05-01 10:16 27.20675 72.84664 36614 ft 554 kts 118°
2026-05-01 10:17 27.15227 72.96123 36624 ft 554 kts 118°
2026-05-01 10:17 27.09782 73.07535 36636 ft 555 kts 118°
2026-05-01 10:18 27.04311 73.18982 36635 ft 555 kts 118°
2026-05-01 10:19 27.00649 73.26622 36645 ft 555 kts 118°
2026-05-01 10:19 26.96985 73.34251 36651 ft 555 kts 118°
2026-05-01 10:20 26.91478 73.45622 36654 ft 555 kts 119°
2026-05-01 10:20 26.87745 73.53213 36659 ft 555 kts 119°
2026-05-01 10:21 26.82153 73.64589 36664 ft 555 kts 119°
2026-05-01 10:22 26.76582 73.75918 36667 ft 555 kts 119°
2026-05-01 10:23 26.70971 73.87301 36671 ft 555 kts 119°
2026-05-01 10:23 26.65380 73.98612 36678 ft 555 kts 119°
2026-05-01 10:24 26.57895 74.13708 36685 ft 555 kts 119°
2026-05-01 10:25 26.50434 74.28842 36691 ft 555 kts 118°
2026-05-01 10:26 26.46761 74.36375 36693 ft 555 kts 118°
2026-05-01 10:27 26.39347 74.51489 36701 ft 555 kts 118°
2026-05-01 10:28 26.33764 74.62821 36699 ft 556 kts 118°
2026-05-01 10:28 26.28163 74.74166 36704 ft 556 kts 118°
2026-05-01 10:29 26.22556 74.85498 36704 ft 557 kts 118°
2026-05-01 10:30 26.14736 75.00326 36699 ft 557 kts 123°
2026-05-01 10:31 26.06065 75.14608 36692 ft 551 kts 125°
2026-05-01 10:32 25.99635 75.25133 36687 ft 549 kts 125°
2026-05-01 10:33 25.91065 75.39166 36693 ft 549 kts 125°
2026-05-01 10:34 25.84504 75.49626 36693 ft 549 kts 128°
2026-05-01 10:34 25.79857 75.56335 36689 ft 549 kts 129°
2026-05-01 10:35 25.72880 75.66417 36683 ft 549 kts 128°
2026-05-01 10:35 25.68281 75.73149 36689 ft 550 kts 128°
2026-05-01 10:36 25.61349 75.83312 36690 ft 551 kts 128°
2026-05-01 10:37 25.56737 75.90056 36690 ft 551 kts 128°
2026-05-01 10:37 25.50567 75.99064 36693 ft 551 kts 128°
2026-05-01 10:38 25.45934 76.05811 36693 ft 551 kts 128°
2026-05-01 10:38 25.41291 76.12566 36698 ft 551 kts 128°
2026-05-01 10:39 25.36656 76.19303 36698 ft 550 kts 128°
2026-05-01 10:39 25.31998 76.26058 36702 ft 550 kts 128°
2026-05-01 10:40 25.27368 76.32763 36704 ft 550 kts 128°
2026-05-01 10:40 25.22736 76.39464 36708 ft 550 kts 128°
2026-05-01 10:41 25.18091 76.46173 36714 ft 550 kts 128°
2026-05-01 10:42 25.11106 76.56244 36720 ft 551 kts 128°
2026-05-01 10:42 25.06438 76.62962 36722 ft 552 kts 128°
2026-05-01 10:43 25.01780 76.69660 36729 ft 552 kts 128°
2026-05-01 10:43 24.96705 76.75993 36727 ft 551 kts 134°
2026-05-01 10:44 24.91420 76.82133 36729 ft 550 kts 135°
2026-05-01 10:44 24.86133 76.88215 36734 ft 550 kts 135°
2026-05-01 10:45 24.80864 76.94279 36732 ft 549 kts 135°
2026-05-01 10:45 24.75573 77.00373 36731 ft 549 kts 135°
2026-05-01 10:46 24.70313 77.06429 36727 ft 548 kts 135°
2026-05-01 10:46 24.65062 77.12466 36730 ft 548 kts 135°
2026-05-01 10:47 24.59764 77.18547 36728 ft 548 kts 135°
2026-05-01 10:47 24.54487 77.24597 36728 ft 548 kts 135°
2026-05-01 10:48 24.49223 77.30623 36728 ft 548 kts 135°
2026-05-01 10:48 24.43952 77.36649 36726 ft 548 kts 135°
2026-05-01 10:49 24.38637 77.42718 36729 ft 548 kts 135°
2026-05-01 10:49 24.33387 77.48705 36728 ft 548 kts 135°
2026-05-01 10:50 24.28105 77.54721 36728 ft 548 kts 135°
2026-05-01 10:50 24.22816 77.60738 36723 ft 548 kts 135°
2026-05-01 10:51 24.17549 77.66721 36723 ft 548 kts 135°
2026-05-01 10:51 24.12222 77.72765 36721 ft 548 kts 135°
2026-05-01 10:52 24.06941 77.78748 36719 ft 548 kts 135°
2026-05-01 10:52 24.01651 77.84736 36716 ft 548 kts 135°
2026-05-01 10:53 23.96338 77.90742 36717 ft 548 kts 135°
2026-05-01 10:53 23.91050 77.96712 36717 ft 548 kts 135°
2026-05-01 10:54 23.85730 78.02708 36721 ft 548 kts 135°
2026-05-01 10:54 23.80425 78.08679 36724 ft 549 kts 135°
2026-05-01 10:55 23.75124 78.14641 36729 ft 549 kts 135°
2026-05-01 10:55 23.69813 78.20607 36729 ft 549 kts 135°
2026-05-01 10:56 23.64474 78.26596 36734 ft 549 kts 135°
2026-05-01 10:56 23.59125 78.32587 36738 ft 549 kts 135°
2026-05-01 10:57 23.53814 78.38530 36739 ft 549 kts 135°
2026-05-01 10:57 23.48473 78.44496 36745 ft 548 kts 135°
2026-05-01 10:58 23.43161 78.50425 36743 ft 548 kts 135°
2026-05-01 10:58 23.37833 78.56366 36740 ft 548 kts 135°
2026-05-01 10:59 23.32505 78.62303 36743 ft 548 kts 135°
2026-05-01 10:59 23.27196 78.68208 36742 ft 548 kts 135°
2026-05-01 11:00 23.21841 78.74157 36742 ft 549 kts 135°
2026-05-01 11:00 23.16459 78.79991 36739 ft 550 kts 136°
2026-05-01 11:01 23.10980 78.85776 36741 ft 549 kts 136°
2026-05-01 11:01 23.05488 78.91586 36746 ft 549 kts 136°
2026-05-01 11:02 23.00045 78.97366 36732 ft 548 kts 136°
2026-05-01 11:02 22.94615 79.03135 36739 ft 547 kts 136°
2026-05-01 11:03 22.89176 79.08907 36727 ft 546 kts 136°
2026-05-01 11:03 22.83750 79.14657 36750 ft 546 kts 136°
2026-05-01 11:04 22.78312 79.20412 36754 ft 545 kts 136°
2026-05-01 11:04 22.72892 79.26141 36754 ft 545 kts 136°
2026-05-01 11:05 22.67467 79.31870 36757 ft 544 kts 136°
2026-05-01 11:05 22.62060 79.37572 36758 ft 543 kts 136°
2026-05-01 11:06 22.56656 79.43266 36760 ft 543 kts 136°
2026-05-01 11:06 22.51325 79.49024 36764 ft 543 kts 135°
2026-05-01 11:07 22.43408 79.57843 36757 ft 542 kts 135°
2026-05-01 11:07 22.38171 79.63630 36760 ft 542 kts 135°
2026-05-01 11:08 22.32892 79.69430 36762 ft 541 kts 135°
2026-05-01 11:09 22.24964 79.78122 36759 ft 541 kts 135°
2026-05-01 11:09 22.19679 79.83910 36759 ft 541 kts 135°
2026-05-01 11:10 22.11717 79.92620 36763 ft 541 kts 135°
2026-05-01 11:10 22.06456 79.98368 36768 ft 542 kts 135°
2026-05-01 11:11 22.01131 80.04178 36771 ft 542 kts 135°
2026-05-01 11:11 21.95849 80.09935 36770 ft 542 kts 135°
2026-05-01 11:12 21.90548 80.15708 36774 ft 542 kts 135°
2026-05-01 11:12 21.85237 80.21483 36768 ft 542 kts 135°
2026-05-01 11:13 21.79948 80.27228 36760 ft 542 kts 135°
2026-05-01 11:13 21.74629 80.32999 36754 ft 541 kts 135°
2026-05-01 11:14 21.69351 80.38720 36753 ft 539 kts 135°
2026-05-01 11:14 21.64080 80.44428 36754 ft 538 kts 135°
2026-05-01 11:15 21.58787 80.50154 36747 ft 537 kts 135°
2026-05-01 11:15 21.53571 80.55787 36749 ft 535 kts 135°
2026-05-01 11:16 21.48293 80.61495 36744 ft 534 kts 135°
2026-05-01 11:16 21.43138 80.67182 36734 ft 534 kts 134°
2026-05-01 11:17 21.37967 80.72912 36734 ft 533 kts 134°
2026-05-01 11:17 21.33678 80.77648 36732 ft 533 kts 135°
2026-05-01 11:18 21.27623 80.84324 36726 ft 532 kts 135°
2026-05-01 11:18 21.22454 80.89994 36724 ft 532 kts 135°
2026-05-01 11:19 21.17296 80.95649 36720 ft 532 kts 135°
2026-05-01 11:19 21.12097 81.01345 36718 ft 532 kts 135°
2026-05-01 11:20 21.06940 81.06993 36719 ft 532 kts 135°
2026-05-01 11:20 21.01766 81.12654 36716 ft 532 kts 135°
2026-05-01 11:21 20.96617 81.18281 36714 ft 532 kts 135°
2026-05-01 11:21 20.92291 81.23004 36713 ft 532 kts 135°
2026-05-01 11:22 20.87119 81.28643 36713 ft 531 kts 135°
2026-05-01 11:22 20.81096 81.35206 36716 ft 531 kts 135°
2026-05-01 11:23 20.76775 81.39919 36718 ft 531 kts 134°
2026-05-01 11:23 20.71659 81.45603 36719 ft 531 kts 134°
2026-05-01 11:24 20.66539 81.51313 36722 ft 531 kts 134°
2026-05-01 11:25 20.58879 81.59811 36728 ft 531 kts 134°
2026-05-01 11:25 20.51188 81.68317 36741 ft 531 kts 134°
2026-05-01 11:26 20.43474 81.76834 36748 ft 530 kts 134°
2026-05-01 11:27 20.38386 81.82446 36752 ft 530 kts 134°
2026-05-01 11:27 20.33245 81.88110 36757 ft 530 kts 134°
2026-05-01 11:28 20.28136 81.93733 36758 ft 530 kts 134°
2026-05-01 11:28 20.23008 81.99372 36768 ft 530 kts 134°
2026-05-01 11:29 20.15337 82.07881 36769 ft 530 kts 134°
2026-05-01 11:30 20.07701 82.16375 36766 ft 531 kts 134°
2026-05-01 11:30 20.02567 82.22070 36768 ft 531 kts 134°
2026-05-01 11:31 19.97473 82.27712 36763 ft 531 kts 134°
2026-05-01 11:31 19.92369 82.33361 36756 ft 531 kts 134°
2026-05-01 11:32 19.87214 82.39060 36752 ft 531 kts 134°
2026-05-01 11:32 19.82105 82.44703 36744 ft 531 kts 134°
2026-05-01 11:33 19.76986 82.50353 36741 ft 530 kts 134°
2026-05-01 11:33 19.71866 82.56000 36735 ft 531 kts 134°
2026-05-01 11:34 19.66752 82.61632 36735 ft 531 kts 134°
2026-05-01 11:34 19.61638 82.67259 36736 ft 531 kts 134°
2026-05-01 11:35 19.56521 82.72884 36737 ft 531 kts 134°
2026-05-01 11:35 19.51390 82.78519 36743 ft 531 kts 134°
2026-05-01 11:36 19.46254 82.84150 36751 ft 532 kts 134°
2026-05-01 11:36 19.41100 82.89795 36758 ft 532 kts 134°
2026-05-01 11:37 19.35939 82.95442 36766 ft 532 kts 134°
2026-05-01 11:37 19.30834 83.01025 36772 ft 531 kts 134°
2026-05-01 11:38 19.25688 83.06651 36778 ft 531 kts 134°
2026-05-01 11:38 19.20520 83.12295 36779 ft 531 kts 134°
2026-05-01 11:39 19.15386 83.17894 36778 ft 531 kts 134°
2026-05-01 11:39 19.10234 83.23509 36776 ft 531 kts 134°
2026-05-01 11:40 19.05084 83.29116 36774 ft 531 kts 134°
2026-05-01 11:40 18.99952 83.34697 36769 ft 531 kts 134°
2026-05-01 11:41 18.94804 83.40299 36764 ft 531 kts 134°
2026-05-01 11:41 18.89661 83.45875 36758 ft 531 kts 134°
2026-05-01 11:42 18.84488 83.51479 36756 ft 531 kts 134°
2026-05-01 11:42 18.79337 83.57054 36750 ft 531 kts 134°
2026-05-01 11:43 18.74186 83.62627 36751 ft 531 kts 134°
2026-05-01 11:43 18.69044 83.68185 36745 ft 531 kts 134°
2026-05-01 11:44 18.61281 83.76569 36744 ft 531 kts 134°
2026-05-01 11:44 18.56158 83.82095 36743 ft 530 kts 134°
2026-05-01 11:45 18.50995 83.87660 36743 ft 530 kts 134°
2026-05-01 11:45 18.45823 83.93228 36740 ft 530 kts 134°
2026-05-01 11:46 18.40694 83.98745 36742 ft 529 kts 134°
2026-05-01 11:46 18.35518 84.04307 36741 ft 529 kts 134°
2026-05-01 11:47 18.30388 84.09813 36742 ft 529 kts 134°
2026-05-01 11:47 18.25230 84.15341 36739 ft 528 kts 134°
2026-05-01 11:48 18.20060 84.20809 36740 ft 528 kts 134°
2026-05-01 11:48 18.14869 84.26289 36742 ft 528 kts 134°
2026-05-01 11:49 18.09689 84.31764 36741 ft 528 kts 134°
2026-05-01 11:49 18.04513 84.37237 36745 ft 528 kts 134°
2026-05-01 11:50 17.99356 84.42686 36745 ft 528 kts 134°
2026-05-01 11:50 17.94150 84.48181 36746 ft 528 kts 134°
2026-05-01 11:51 17.88999 84.53613 36747 ft 528 kts 134°
2026-05-01 11:51 17.83799 84.59092 36751 ft 527 kts 134°
2026-05-01 11:52 17.78637 84.64526 36749 ft 527 kts 134°
2026-05-01 11:52 17.73454 84.69975 36751 ft 527 kts 134°
2026-05-01 11:53 17.68296 84.75395 36754 ft 527 kts 134°
2026-05-01 11:53 17.63127 84.80876 36755 ft 526 kts 134°
2026-05-01 11:54 17.58048 84.86360 36758 ft 526 kts 133°
2026-05-01 11:54 17.52966 84.91846 36760 ft 526 kts 133°
2026-05-01 11:55 17.47847 84.97351 36761 ft 525 kts 134°
2026-05-01 11:55 17.42761 85.02808 36759 ft 525 kts 134°
2026-05-01 11:56 17.37652 85.08281 36761 ft 524 kts 134°
2026-05-01 11:56 17.32565 85.13728 37108 ft 524 kts 134°
2026-05-01 11:57 17.30852 85.15561 37380 ft 522 kts 134°
2026-05-01 11:57 17.28296 85.18296 37783 ft 520 kts 134°
2026-05-01 11:57 17.24954 85.21869 38270 ft 518 kts 134°
2026-05-01 11:57 17.22438 85.24560 38592 ft 516 kts 134°
2026-05-01 11:58 17.19929 85.27242 38744 ft 517 kts 134°
2026-05-01 11:58 17.17425 85.29917 38771 ft 516 kts 134°
2026-05-01 11:59 17.10078 85.38122 38774 ft 513 kts 131°
2026-05-01 11:59 17.05285 85.43665 38778 ft 513 kts 131°
2026-05-01 12:00 16.98058 85.51929 38780 ft 512 kts 131°
2026-05-01 12:01 16.90856 85.60107 38785 ft 511 kts 131°
2026-05-01 12:01 16.86024 85.65587 38787 ft 510 kts 131°
2026-05-01 12:02 16.81227 85.71028 38789 ft 510 kts 131°
2026-05-01 12:02 16.76417 85.76478 38789 ft 510 kts 132°
2026-05-01 12:03 16.71610 85.81921 38793 ft 509 kts 132°
2026-05-01 12:03 16.66807 85.87355 38796 ft 509 kts 132°
2026-05-01 12:04 16.62003 85.92786 38800 ft 509 kts 132°
2026-05-01 12:04 16.57209 85.98200 38801 ft 508 kts 132°
2026-05-01 12:05 16.52409 86.03616 38800 ft 508 kts 132°
2026-05-01 12:05 16.45205 86.11739 38802 ft 508 kts 133°
2026-05-01 12:06 16.41231 86.16198 38806 ft 508 kts 133°
2026-05-01 12:06 16.36374 86.21563 38806 ft 508 kts 133°
2026-05-01 12:07 16.31531 86.26904 38809 ft 508 kts 133°
2026-05-01 12:07 16.26689 86.32256 38809 ft 508 kts 133°
2026-05-01 12:08 16.21839 86.37619 38812 ft 508 kts 133°
2026-05-01 12:08 16.16996 86.42973 38814 ft 508 kts 133°
2026-05-01 12:09 16.12151 86.48324 38816 ft 508 kts 133°
2026-05-01 12:09 16.07280 86.53699 38820 ft 509 kts 133°
2026-05-01 12:10 16.00020 86.61703 38816 ft 509 kts 133°
2026-05-01 12:11 15.92724 86.69738 38820 ft 510 kts 133°
2026-05-01 12:11 15.87843 86.75109 38825 ft 510 kts 133°
2026-05-01 12:12 15.82977 86.80458 38829 ft 510 kts 133°
2026-05-01 12:12 15.78093 86.85822 38827 ft 510 kts 133°
2026-05-01 12:13 15.73239 86.91149 38831 ft 510 kts 133°
2026-05-01 12:13 15.68365 86.96494 38830 ft 510 kts 133°
2026-05-01 12:14 15.63493 87.01833 38834 ft 509 kts 134°
2026-05-01 12:14 15.58602 87.07189 38833 ft 509 kts 134°
2026-05-01 12:15 15.53727 87.12525 38839 ft 509 kts 134°
2026-05-01 12:15 15.48865 87.17842 38836 ft 509 kts 134°
2026-05-01 12:16 15.44000 87.23158 38840 ft 509 kts 134°
2026-05-01 12:16 15.39082 87.28529 38843 ft 510 kts 134°
2026-05-01 12:17 15.34244 87.33806 38841 ft 510 kts 134°
2026-05-01 12:17 15.29360 87.39131 38846 ft 510 kts 134°
2026-05-01 12:18 15.24444 87.44486 38848 ft 510 kts 134°
2026-05-01 12:18 15.19573 87.49790 38852 ft 509 kts 134°
2026-05-01 12:19 15.14704 87.55087 38855 ft 508 kts 134°
2026-05-01 12:19 15.09854 87.60360 38860 ft 507 kts 134°
2026-05-01 12:20 15.04990 87.65644 38858 ft 506 kts 134°
2026-05-01 12:20 15.00118 87.70933 38862 ft 505 kts 134°
2026-05-01 12:21 14.95293 87.76168 38864 ft 505 kts 134°
2026-05-01 12:21 14.90431 87.81439 38870 ft 505 kts 134°
2026-05-01 12:22 14.85595 87.86678 38871 ft 504 kts 134°
2026-05-01 12:22 14.80751 87.91923 38870 ft 504 kts 134°
2026-05-01 12:23 14.75909 87.97162 38878 ft 504 kts 134°
2026-05-01 12:23 14.71082 88.02381 38876 ft 504 kts 134°
2026-05-01 12:24 14.66241 88.07610 38879 ft 504 kts 134°
2026-05-01 12:24 14.61384 88.12855 38879 ft 504 kts 134°
2026-05-01 12:25 14.54111 88.20701 38882 ft 505 kts 134°
2026-05-01 12:26 14.49246 88.25945 38883 ft 505 kts 134°
2026-05-01 12:26 14.41943 88.33810 38884 ft 506 kts 134°
2026-05-01 12:27 14.34658 88.41647 38884 ft 506 kts 134°
2026-05-01 12:28 14.27350 88.49501 38886 ft 505 kts 135°
2026-05-01 12:29 14.20056 88.57333 38885 ft 505 kts 135°
2026-05-01 12:29 14.12759 88.65162 38891 ft 505 kts 135°
2026-05-01 12:30 14.05469 88.72972 39224 ft 504 kts 135°
2026-05-01 12:30 14.03035 88.75578 39495 ft 503 kts 135°
2026-05-01 12:31 14.00601 88.78183 39761 ft 502 kts 134°
2026-05-01 12:31 13.98173 88.80780 40020 ft 501 kts 134°
2026-05-01 12:31 13.95775 88.83345 40275 ft 500 kts 134°
2026-05-01 12:31 13.93356 88.85933 40513 ft 499 kts 134°
2026-05-01 12:32 13.90966 88.88488 40747 ft 499 kts 134°
2026-05-01 12:32 13.86160 88.93625 40892 ft 499 kts 134°
2026-05-01 12:32 13.83743 88.96208 40887 ft 498 kts 134°
2026-05-01 12:33 13.78925 89.01353 40889 ft 498 kts 134°
2026-05-01 12:33 13.74151 89.06447 40888 ft 498 kts 134°
2026-05-01 12:34 13.69318 89.11598 40885 ft 498 kts 134°
2026-05-01 12:34 13.64511 89.16719 40883 ft 497 kts 134°
2026-05-01 12:35 13.59700 89.21842 40885 ft 497 kts 134°
2026-05-01 12:35 13.54914 89.26936 40884 ft 497 kts 134°
2026-05-01 12:36 13.50119 89.32036 40879 ft 496 kts 134°
2026-05-01 12:36 13.45333 89.37122 40886 ft 496 kts 134°
2026-05-01 12:37 13.40522 89.42232 40881 ft 495 kts 135°
2026-05-01 12:37 13.35743 89.47306 40882 ft 495 kts 135°
2026-05-01 12:38 13.30956 89.52387 40879 ft 495 kts 135°
2026-05-01 12:38 13.26173 89.57460 40896 ft 494 kts 135°
2026-05-01 12:39 13.21410 89.62507 40897 ft 494 kts 135°
2026-05-01 12:39 13.16624 89.67574 40893 ft 493 kts 135°
2026-05-01 12:40 13.11850 89.72626 40894 ft 493 kts 135°
2026-05-01 12:40 13.07067 89.77686 40882 ft 493 kts 135°
2026-05-01 12:41 13.02284 89.82742 40869 ft 493 kts 135°
2026-05-01 12:41 12.97500 89.87797 40877 ft 492 kts 135°
2026-05-01 12:42 12.92743 89.92820 40886 ft 492 kts 135°
2026-05-01 12:42 12.87963 89.97864 40882 ft 492 kts 135°
2026-05-01 12:43 12.83215 90.02872 40885 ft 492 kts 135°
2026-05-01 12:43 12.78433 90.07912 40884 ft 492 kts 135°
2026-05-01 12:44 12.73669 90.12930 40876 ft 492 kts 135°
2026-05-01 12:45 12.64165 90.22933 40877 ft 492 kts 135°
2026-05-01 12:45 12.59388 90.27957 40877 ft 492 kts 135°
2026-05-01 12:46 12.54603 90.32986 40869 ft 492 kts 135°
2026-05-01 12:46 12.49842 90.37987 40876 ft 492 kts 135°
2026-05-01 12:47 12.45036 90.43032 40875 ft 492 kts 135°
2026-05-01 12:47 12.40262 90.48040 40881 ft 492 kts 135°
2026-05-01 12:48 12.36280 90.52215 40873 ft 492 kts 135°
2026-05-01 12:48 12.30706 90.58057 40877 ft 492 kts 135°
2026-05-01 12:49 12.25948 90.63041 40864 ft 492 kts 135°
2026-05-01 12:49 12.21937 90.67242 40874 ft 492 kts 135°
2026-05-01 12:50 12.17176 90.72225 40873 ft 492 kts 135°
2026-05-01 12:50 12.12389 90.77231 40869 ft 492 kts 135°
2026-05-01 12:51 12.07624 90.82211 40870 ft 491 kts 135°
2026-05-01 12:52 12.00449 90.89708 40876 ft 491 kts 135°
2026-05-01 12:52 11.93275 90.97194 40871 ft 491 kts 135°
2026-05-01 12:53 11.86115 91.04661 40874 ft 491 kts 135°
2026-05-01 12:54 11.81364 91.09614 40872 ft 491 kts 135°
2026-05-01 12:54 11.74202 91.17073 40873 ft 490 kts 135°
2026-05-01 12:55 11.67045 91.24526 40873 ft 490 kts 135°
2026-05-01 12:56 11.62285 91.29479 40874 ft 489 kts 135°
2026-05-01 12:56 11.57507 91.34447 40873 ft 489 kts 135°
2026-05-01 12:57 11.52743 91.39397 40876 ft 488 kts 135°
2026-05-01 12:57 11.45593 91.46822 40876 ft 488 kts 136°
2026-05-01 12:58 11.40882 91.51710 40876 ft 487 kts 136°
2026-05-01 12:59 11.33746 91.59109 40875 ft 486 kts 136°
2026-05-01 12:59 11.26621 91.66493 40873 ft 486 kts 136°
2026-05-01 13:00 11.19525 91.73839 40872 ft 485 kts 136°
2026-05-01 13:01 11.12397 91.81214 40873 ft 485 kts 136°
2026-05-01 13:02 11.05324 91.88528 40873 ft 485 kts 136°
2026-05-01 13:07 10.53258 92.42199 40881 ft 483 kts 136°
2026-05-01 13:08 10.48556 92.47031 40879 ft 483 kts 136°
2026-05-01 13:08 10.43811 92.51905 40882 ft 483 kts 136°
2026-05-01 13:09 10.39083 92.56760 40879 ft 483 kts 136°
2026-05-01 13:09 10.34353 92.61616 40882 ft 483 kts 136°
2026-05-01 13:10 10.29628 92.66465 40880 ft 483 kts 136°
2026-05-01 13:10 10.24884 92.71330 40878 ft 483 kts 136°
2026-05-01 13:11 10.20185 92.76147 40881 ft 483 kts 136°
2026-05-01 13:11 10.15442 92.81006 40884 ft 483 kts 136°
2026-05-01 13:12 10.10727 92.85836 40885 ft 483 kts 136°
2026-05-01 13:12 10.05991 92.90684 40884 ft 483 kts 136°
2026-05-01 13:13 10.01270 92.95513 40885 ft 483 kts 136°
2026-05-01 13:13 9.96539 93.00352 40884 ft 483 kts 136°
2026-05-01 13:14 9.91801 93.05196 40882 ft 483 kts 136°
2026-05-01 13:14 9.87067 93.10033 40883 ft 483 kts 136°
2026-05-01 13:15 9.82340 93.14862 40881 ft 483 kts 136°
2026-05-01 13:15 9.77588 93.19716 40886 ft 483 kts 136°
2026-05-01 13:16 9.72851 93.24551 40887 ft 483 kts 136°
2026-05-01 13:16 9.68134 93.29362 40885 ft 483 kts 136°
2026-05-01 13:17 9.58661 93.39024 40885 ft 483 kts 136°
2026-05-01 13:18 9.51558 93.46259 40886 ft 483 kts 136°
2026-05-01 13:18 9.46800 93.51102 40888 ft 483 kts 136°
2026-05-01 13:19 9.42085 93.55900 40889 ft 483 kts 136°
2026-05-01 13:20 9.34968 93.63140 40886 ft 483 kts 136°
2026-05-01 13:20 9.30212 93.67977 40889 ft 483 kts 136°
2026-05-01 13:21 9.23117 93.75187 40887 ft 483 kts 136°
2026-05-01 13:21 9.18383 93.79994 40892 ft 483 kts 136°
2026-05-01 13:22 9.13628 93.84822 40888 ft 483 kts 136°
2026-05-01 13:22 9.08912 93.89610 40891 ft 482 kts 136°
2026-05-01 13:23 9.04168 93.94424 40891 ft 482 kts 136°
2026-05-01 13:23 8.99408 93.99251 40891 ft 482 kts 136°
2026-05-01 13:24 8.94692 94.04033 40892 ft 481 kts 136°
2026-05-01 13:25 8.87590 94.11231 40905 ft 481 kts 136°
2026-05-01 13:25 8.82835 94.16048 40886 ft 481 kts 137°
2026-05-01 13:26 8.78129 94.20813 40888 ft 480 kts 137°
2026-05-01 13:26 8.73407 94.25591 40890 ft 480 kts 137°
2026-05-01 13:27 8.68689 94.30364 40901 ft 480 kts 137°
2026-05-01 13:27 8.61610 94.37521 40891 ft 479 kts 137°
2026-05-01 13:28 8.56072 94.44497 40907 ft 483 kts 122°
2026-05-01 13:29 8.49729 94.56482 40888 ft 484 kts 120°
2026-05-01 13:31 8.40339 94.74511 40906 ft 484 kts 120°
2026-05-01 13:32 8.32463 94.89547 40885 ft 483 kts 120°
2026-05-01 13:33 8.24606 95.04537 40887 ft 483 kts 119°
2026-05-01 13:34 8.18320 95.16515 40897 ft 483 kts 119°
2026-05-01 13:35 8.13609 95.25487 40885 ft 482 kts 119°
2026-05-01 13:36 8.08909 95.34430 40900 ft 482 kts 119°
2026-05-01 13:36 8.04186 95.43412 40899 ft 482 kts 119°
2026-05-01 13:37 8.01049 95.49375 40900 ft 482 kts 119°
2026-05-01 13:37 7.97898 95.55356 40900 ft 482 kts 119°
2026-05-01 13:38 7.93189 95.64260 40904 ft 482 kts 119°
2026-05-01 13:39 7.90018 95.70252 40905 ft 482 kts 119°
2026-05-01 13:39 7.86867 95.76209 40905 ft 482 kts 119°
2026-05-01 13:40 7.83714 95.82169 40902 ft 482 kts 119°
2026-05-01 13:40 7.80538 95.88166 40904 ft 482 kts 119°
2026-05-01 13:41 7.77401 95.94089 40896 ft 481 kts 119°
2026-05-01 13:41 7.74252 96.00031 40885 ft 481 kts 119°
2026-05-01 13:42 7.71087 96.06003 40887 ft 481 kts 119°
2026-05-01 13:42 7.67932 96.11954 40887 ft 481 kts 119°
2026-05-01 13:43 7.64769 96.17914 40888 ft 481 kts 119°
2026-05-01 13:43 7.61609 96.23867 40906 ft 481 kts 119°
2026-05-01 13:44 7.58454 96.29811 40907 ft 482 kts 119°
2026-05-01 13:44 7.55312 96.35726 40905 ft 482 kts 119°
2026-05-01 13:45 7.52141 96.41694 40902 ft 482 kts 119°
2026-05-01 13:45 7.48971 96.47657 40902 ft 482 kts 119°
2026-05-01 13:46 7.45810 96.53599 40900 ft 482 kts 119°
2026-05-01 13:46 7.42645 96.59546 40901 ft 482 kts 119°
2026-05-01 13:47 7.39481 96.65490 40884 ft 481 kts 119°
2026-05-01 13:47 7.36315 96.71438 40887 ft 481 kts 119°
2026-05-01 13:48 7.33150 96.77380 40887 ft 481 kts 119°
2026-05-01 13:48 7.29986 96.83320 40903 ft 481 kts 119°
2026-05-01 13:49 7.27261 96.89469 40903 ft 482 kts 107°
2026-05-01 13:49 7.25475 96.95977 40887 ft 482 kts 108°
2026-05-01 13:50 7.22617 97.02026 40899 ft 480 kts 123°
2026-05-01 13:50 7.18847 97.07580 40898 ft 481 kts 126°
2026-05-01 13:51 7.14933 97.13017 40896 ft 481 kts 126°
2026-05-01 13:51 7.10981 97.18525 40898 ft 481 kts 126°
2026-05-01 13:52 7.07098 97.23991 40880 ft 481 kts 126°
2026-05-01 13:52 7.03231 97.29456 40897 ft 481 kts 126°
2026-05-01 13:53 6.99339 97.34957 40881 ft 481 kts 126°
2026-05-01 13:53 6.93526 97.43163 40901 ft 481 kts 126°
2026-05-01 13:54 6.89618 97.48677 40899 ft 481 kts 126°
2026-05-01 13:54 6.85737 97.54151 40894 ft 481 kts 126°
2026-05-01 13:55 6.81866 97.59608 40902 ft 480 kts 126°
2026-05-01 13:55 6.77989 97.65073 40897 ft 480 kts 126°
2026-05-01 13:56 6.74087 97.70571 40898 ft 480 kts 126°
2026-05-01 13:56 6.70217 97.76021 40892 ft 480 kts 126°
2026-05-01 13:57 6.66988 97.80569 40898 ft 480 kts 126°
2026-05-01 13:57 6.62448 97.86961 40894 ft 480 kts 126°
2026-05-01 13:58 6.58558 97.92435 40897 ft 480 kts 126°
2026-05-01 13:58 6.54667 97.97910 40894 ft 481 kts 126°
2026-05-01 13:59 6.50784 98.03372 40897 ft 480 kts 126°
2026-05-01 13:59 6.46911 98.08817 40895 ft 480 kts 126°
2026-05-01 14:00 6.43026 98.14280 40899 ft 480 kts 126°
2026-05-01 14:00 6.39145 98.19735 40900 ft 479 kts 126°
2026-05-01 14:01 6.35272 98.25176 40898 ft 479 kts 127°
2026-05-01 14:01 6.31354 98.30677 40902 ft 479 kts 127°
2026-05-01 14:02 6.27499 98.36086 40897 ft 479 kts 127°
2026-05-01 14:02 6.23594 98.41567 40897 ft 479 kts 127°
2026-05-01 14:03 6.19728 98.46992 40904 ft 479 kts 127°
2026-05-01 14:03 6.15842 98.52441 40905 ft 479 kts 127°
2026-05-01 14:04 6.11971 98.57867 40902 ft 479 kts 126°
2026-05-01 14:04 6.08722 98.62423 40905 ft 478 kts 126°
2026-05-01 14:05 6.04219 98.68733 40893 ft 478 kts 126°
2026-05-01 14:05 6.00344 98.74163 40905 ft 478 kts 126°
2026-05-01 14:06 5.96466 98.79593 40904 ft 477 kts 126°
2026-05-01 14:06 5.92609 98.84993 40901 ft 477 kts 126°
2026-05-01 14:07 5.88741 98.90409 40909 ft 477 kts 126°
2026-05-01 14:08 5.82935 98.98533 40904 ft 477 kts 126°
2026-05-01 14:08 5.79069 99.03941 40903 ft 478 kts 125°
2026-05-01 14:09 5.75198 99.09355 40905 ft 478 kts 125°
2026-05-01 14:09 5.71976 99.13861 40911 ft 478 kts 125°
2026-05-01 14:10 5.68080 99.19309 40910 ft 478 kts 125°
2026-05-01 14:10 5.64202 99.24729 40908 ft 478 kts 125°
2026-05-01 14:11 5.60332 99.30133 40909 ft 478 kts 125°
2026-05-01 14:11 5.54508 99.38267 40897 ft 479 kts 125°
2026-05-01 14:12 5.50612 99.43708 40911 ft 479 kts 125°
2026-05-01 14:12 5.46696 99.49176 40917 ft 480 kts 125°
2026-05-01 14:13 5.42783 99.54636 40917 ft 480 kts 125°
2026-05-01 14:13 5.38908 99.60043 40908 ft 480 kts 125°
2026-05-01 14:14 5.34973 99.65530 40919 ft 481 kts 125°
2026-05-01 14:14 5.31095 99.70936 40923 ft 481 kts 125°
2026-05-01 14:15 5.27165 99.76416 40923 ft 481 kts 125°
2026-05-01 14:15 5.23251 99.81870 40917 ft 481 kts 125°
2026-05-01 14:16 5.19347 99.87312 40903 ft 481 kts 124°
2026-05-01 14:16 5.15443 99.92751 40906 ft 482 kts 124°
2026-05-01 14:17 5.11508 99.98229 40901 ft 482 kts 124°
2026-05-01 14:17 5.07588 100.03688 40900 ft 482 kts 124°
2026-05-01 14:18 5.03667 100.09147 40896 ft 482 kts 124°
2026-05-01 14:18 5.00399 100.13694 40894 ft 482 kts 124°
2026-05-01 14:19 4.95837 100.20041 40902 ft 483 kts 124°
2026-05-01 14:19 4.91903 100.25516 40903 ft 482 kts 124°
2026-05-01 14:20 4.86023 100.33694 40883 ft 482 kts 124°
2026-05-01 14:21 4.82106 100.39141 40893 ft 482 kts 124°
2026-05-01 14:21 4.78170 100.44613 40881 ft 482 kts 125°
2026-05-01 14:22 4.72290 100.52783 40884 ft 482 kts 125°
2026-05-01 14:22 4.68343 100.58265 40880 ft 482 kts 125°
2026-05-01 14:23 4.64439 100.63687 40881 ft 482 kts 125°
2026-05-01 14:23 4.60499 100.69159 40881 ft 482 kts 125°
2026-05-01 14:24 4.56572 100.74611 40876 ft 482 kts 125°
2026-05-01 14:24 4.52663 100.80036 40878 ft 482 kts 125°
2026-05-01 14:25 4.48961 100.85151 40878 ft 482 kts 126°
2026-05-01 14:25 4.45935 100.88468 40882 ft 483 kts 137°
2026-05-01 14:26 4.37365 100.93796 40882 ft 485 kts 153°
2026-05-01 14:27 4.31270 100.96660 40880 ft 486 kts 154°
2026-05-01 14:27 4.25156 100.99532 40883 ft 485 kts 153°
2026-05-01 14:28 4.16041 101.03938 40881 ft 485 kts 153°
2026-05-01 14:28 4.09952 101.06908 40886 ft 485 kts 153°
2026-05-01 14:29 4.03903 101.09855 40886 ft 485 kts 153°
2026-05-01 14:30 3.91799 101.15746 40891 ft 485 kts 153°
2026-05-01 14:31 3.82663 101.20191 40891 ft 485 kts 153°
2026-05-01 14:31 3.76634 101.23123 40890 ft 484 kts 153°
2026-05-01 14:32 3.70608 101.26188 40914 ft 484 kts 151°
2026-05-01 14:32 3.64651 101.29335 40909 ft 484 kts 151°
2026-05-01 14:33 3.58705 101.32460 40915 ft 484 kts 152°
2026-05-01 14:33 3.52728 101.35578 40919 ft 484 kts 152°
2026-05-01 14:34 3.46766 101.38679 40921 ft 484 kts 152°
2026-05-01 14:34 3.40804 101.41779 40913 ft 483 kts 152°
2026-05-01 14:35 3.34813 101.44895 40906 ft 483 kts 152°
2026-05-01 14:35 3.28855 101.47932 40896 ft 483 kts 154°
2026-05-01 14:36 3.22703 101.50731 40885 ft 483 kts 155°
2026-05-01 14:36 3.16571 101.53477 40883 ft 483 kts 155°
2026-05-01 14:37 3.10466 101.56264 40885 ft 483 kts 154°
2026-05-01 14:37 3.04356 101.59083 40884 ft 483 kts 154°
2026-05-01 14:38 2.98237 101.61910 40888 ft 483 kts 154°
2026-05-01 14:38 2.92137 101.64725 40890 ft 483 kts 154°
2026-05-01 14:39 2.86040 101.67537 40883 ft 483 kts 154°
2026-05-01 14:39 2.79947 101.70347 40883 ft 483 kts 154°
2026-05-01 14:40 2.73854 101.73157 40884 ft 482 kts 154°
2026-05-01 14:40 2.67783 101.76010 40881 ft 482 kts 153°
2026-05-01 14:41 2.61734 101.78982 40885 ft 482 kts 153°
2026-05-01 14:41 2.55852 101.82123 40890 ft 481 kts 145°
2026-05-01 14:42 2.50967 101.86597 40900 ft 478 kts 128°
2026-05-01 14:42 2.46888 101.91865 40910 ft 478 kts 126°
2026-05-01 14:43 2.42918 101.97205 40907 ft 478 kts 126°
2026-05-01 14:43 2.38933 102.02546 40915 ft 478 kts 126°
2026-05-01 14:44 2.34934 102.07869 40912 ft 478 kts 126°
2026-05-01 14:44 2.28937 102.15825 40913 ft 478 kts 126°
2026-05-01 14:45 2.22944 102.23776 40916 ft 478 kts 126°
2026-05-01 14:46 2.18939 102.29090 40624 ft 478 kts 126°
2026-05-01 14:46 2.14933 102.34406 40133 ft 478 kts 126°
2026-05-01 14:46 2.12939 102.37051 39522 ft 479 kts 126°
2026-05-01 14:47 2.10935 102.39710 38825 ft 481 kts 126°
2026-05-01 14:47 2.09590 102.41495 38331 ft 482 kts 126°
2026-05-01 14:47 2.07567 102.44178 37581 ft 483 kts 126°
2026-05-01 14:48 2.03512 102.49557 36187 ft 484 kts 126°
2026-05-01 14:48 2.01507 102.52220 35459 ft 485 kts 126°
2026-05-01 14:48 1.97415 102.57663 33783 ft 492 kts 126°
2026-05-01 14:49 1.93275 102.63153 31872 ft 498 kts 126°
2026-05-01 14:49 1.89084 102.68711 29893 ft 504 kts 126°
2026-05-01 14:50 1.85549 102.73403 28231 ft 504 kts 126°
2026-05-01 14:50 1.80688 102.79855 26501 ft 491 kts 126°
2026-05-01 14:51 1.78629 102.82587 25759 ft 486 kts 126°
2026-05-01 14:51 1.74620 102.87927 24307 ft 477 kts 124°
2026-05-01 14:52 1.71357 102.93458 23240 ft 455 kts 117°
2026-05-01 14:52 1.69855 102.96240 22818 ft 454 kts 117°
2026-05-01 14:52 1.66928 103.01771 22009 ft 449 kts 117°
2026-05-01 14:53 1.65467 103.04535 21593 ft 446 kts 117°
2026-05-01 14:53 1.64021 103.07263 21171 ft 443 kts 117°
2026-05-01 14:53 1.62374 103.09866 20781 ft 442 kts 127°
2026-05-01 14:53 1.60229 103.12014 20390 ft 442 kts 141°
2026-05-01 14:54 1.57557 103.13556 19985 ft 443 kts 154°
2026-05-01 14:54 1.54718 103.14717 19569 ft 441 kts 156°
2026-05-01 14:54 1.51871 103.15841 19173 ft 438 kts 156°
2026-05-01 14:54 1.49062 103.16955 18781 ft 436 kts 156°
2026-05-01 14:55 1.46247 103.18073 18475 ft 427 kts 156°
2026-05-01 14:55 1.43533 103.19151 18241 ft 408 kts 156°
2026-05-01 14:55 1.41011 103.20151 17832 ft 376 kts 156°
2026-05-01 14:55 1.38668 103.21081 17440 ft 349 kts 156°
2026-05-01 14:56 1.36475 103.21953 17133 ft 324 kts 156°
2026-05-01 14:56 1.34435 103.22767 16906 ft 328 kts 156°
2026-05-01 14:56 1.32301 103.23620 16604 ft 326 kts 156°
2026-05-01 14:56 1.30200 103.24457 16317 ft 321 kts 156°
2026-05-01 14:57 1.28142 103.25278 16001 ft 321 kts 156°
2026-05-01 14:57 1.24062 103.27037 15335 ft 318 kts 149°
2026-05-01 14:57 1.22128 103.28143 14924 ft 316 kts 148°
2026-05-01 14:58 1.20253 103.29239 14609 ft 314 kts 148°
2026-05-01 14:58 1.18396 103.30318 14325 ft 312 kts 148°
2026-05-01 14:58 1.16503 103.31415 14046 ft 311 kts 148°
2026-05-01 14:58 1.14644 103.32492 13754 ft 310 kts 148°
2026-05-01 14:59 1.12774 103.33574 13454 ft 308 kts 148°
2026-05-01 14:59 1.10918 103.34648 13164 ft 306 kts 148°
2026-05-01 14:59 1.09098 103.35703 12970 ft 300 kts 148°
2026-05-01 14:59 1.07312 103.36735 12772 ft 291 kts 148°
2026-05-01 15:00 1.03998 103.38649 12295 ft 266 kts 148°
2026-05-01 15:00 1.02391 103.39579 12053 ft 265 kts 148°
2026-05-01 15:00 1.00802 103.40499 11808 ft 264 kts 148°
2026-05-01 15:01 0.99206 103.41448 11560 ft 263 kts 145°
2026-05-01 15:01 0.97931 103.42708 11327 ft 260 kts 121°
2026-05-01 15:01 0.97364 103.44414 11023 ft 258 kts 97°
2026-05-01 15:01 0.97224 103.46185 10756 ft 258 kts 94°
2026-05-01 15:02 0.97107 103.47978 10518 ft 258 kts 95°
2026-05-01 15:02 0.97021 103.49172 10362 ft 258 kts 95°
2026-05-01 15:02 0.96841 103.51557 10047 ft 257 kts 95°
2026-05-01 15:02 0.96702 103.53338 9814 ft 257 kts 95°
2026-05-01 15:03 0.96563 103.55103 9561 ft 256 kts 95°
2026-05-01 15:03 0.96462 103.56888 9307 ft 256 kts 90°
2026-05-01 15:03 0.96628 103.58647 9089 ft 255 kts 83°
2026-05-01 15:03 0.96879 103.60378 8863 ft 254 kts 83°
2026-05-01 15:04 0.97130 103.62118 8635 ft 254 kts 83°
2026-05-01 15:04 0.97382 103.63886 8395 ft 253 kts 83°
2026-05-01 15:04 0.97625 103.65612 8160 ft 252 kts 83°
2026-05-01 15:04 0.97866 103.67335 7938 ft 251 kts 83°
2026-05-01 15:05 0.98156 103.69064 7813 ft 249 kts 77°
2026-05-01 15:05 0.98808 103.70636 7580 ft 241 kts 60°
2026-05-01 15:05 0.99695 103.72010 7251 ft 230 kts 57°
2026-05-01 15:05 1.00579 103.73300 6799 ft 227 kts 57°
2026-05-01 15:06 1.01318 103.74366 6482 ft 222 kts 56°
2026-05-01 15:06 1.02170 103.75589 6175 ft 214 kts 56°
2026-05-01 15:06 1.03031 103.76820 5930 ft 216 kts 56°
2026-05-01 15:06 1.03896 103.78054 5667 ft 216 kts 56°
2026-05-01 15:07 1.04754 103.79275 5415 ft 214 kts 56°
2026-05-01 15:07 1.05613 103.80496 5157 ft 213 kts 56°
2026-05-01 15:07 1.06465 103.81707 4922 ft 212 kts 56°
2026-05-01 15:07 1.07306 103.82901 4673 ft 211 kts 56°
2026-05-01 15:08 1.08144 103.84090 4435 ft 209 kts 56°
2026-05-01 15:08 1.08979 103.85275 4247 ft 205 kts 56°
2026-05-01 15:08 1.09807 103.86419 3999 ft 204 kts 52°
2026-05-01 15:08 1.10886 103.87347 3759 ft 203 kts 34°
2026-05-01 15:09 1.12111 103.88014 3553 ft 201 kts 26°
2026-05-01 15:09 1.13358 103.88573 3489 ft 195 kts 25°
2026-05-01 15:09 1.14600 103.89122 3493 ft 196 kts 24°
2026-05-01 15:09 1.15848 103.89653 3500 ft 196 kts 24°
2026-05-01 15:10 1.17115 103.90191 3504 ft 196 kts 24°
2026-05-01 15:10 1.19619 103.91267 3160 ft 196 kts 24°
2026-05-01 15:10 1.20887 103.91804 2902 ft 196 kts 24°
2026-05-01 15:11 1.22133 103.92331 2651 ft 196 kts 24°
2026-05-01 15:11 1.24594 103.93376 2149 ft 190 kts 24°
2026-05-01 15:11 1.25793 103.93885 1907 ft 180 kts 24°
2026-05-01 15:12 1.26913 103.94360 1680 ft 172 kts 24°
2026-05-01 15:12 1.29044 103.95264 1245 ft 162 kts 24°
2026-05-01 15:12 1.30064 103.95697 1022 ft 154 kts 24°
2026-05-01 15:13 1.32745 103.96831 521 ft 130 kts 20°
2026-05-01 15:14 1.34412 103.97535 177 ft 129 kts 20°
2026-05-01 15:14 1.35242 103.97890 44 ft 129 kts 19°
2026-05-01 15:14 1.35529 103.98011 39 ft 123 kts 24°
2026-05-01 15:15 1.36352 103.98360 37 ft 38 kts 22°
2026-05-01 15:15 1.36730 103.98601 37 ft 21 kts 55°
2026-05-01 15:16 1.36651 103.98678 37 ft 12 kts 199°
2026-05-01 15:16 1.36467 103.98608 37 ft 12 kts 178°
2026-05-01 15:17 1.36312 103.98635 37 ft 15 kts 200°
2026-05-01 15:18 1.36089 103.98568 37 ft 7 kts 154°
2026-05-01 15:18 1.36038 103.98591 37 ft 9 kts 159°
2026-05-01 15:19 1.35920 103.98634 37 ft 1 kts 160°
2026-05-01 15:19 1.35915 103.98635 37 ft 0 kts 160°